| time (UTC) | temp F | wind direction | speed knots | gust knots | rain 1hr in | rain 24hr in | rain mn in | humidity % | barometer mb |
| 20260502215505 | 68 | 294 | 6.1 | 12.2 | 0.00 | 0.00 | 0.00 | 23 | 1010.3 |
| 20260502214505 | 68 | 298 | 7.8 | 11.3 | 0.00 | 0.00 | 0.00 | 22 | 1010.4 |
| 20260502213505 | 68 | 314 | 7.0 | 11.3 | 0.00 | 0.00 | 0.00 | 22 | 1010.6 |
| 20260502213005 | 68 | 301 | 6.1 | 11.3 | 0.00 | 0.00 | 0.00 | 23 | 1010.6 |
| 20260502212505 | 68 | 293 | 6.1 | 10.4 | 0.00 | 0.00 | 0.00 | 22 | 1010.6 |
| 20260502212005 | 68 | 301 | 5.2 | 10.4 | 0.00 | 0.00 | 0.00 | 21 | 1010.6 |
| 20260502211505 | 68 | 284 | 6.1 | 11.3 | 0.00 | 0.00 | 0.00 | 22 | 1010.7 |
| 20260502211005 | 68 | 290 | 6.1 | 11.3 | 0.00 | 0.00 | 0.00 | 21 | 1010.7 |
| 20260502210005 | 68 | 300 | 5.2 | 11.3 | 0.00 | 0.00 | 0.00 | 22 | 1010.8 |
| 20260502205505 | 69 | 267 | 7.0 | 13.0 | 0.00 | 0.00 | 0.00 | 22 | 1010.8 |
| 20260502205005 | 68 | 287 | 7.8 | 14.8 | 0.00 | 0.00 | 0.00 | 21 | 1010.9 |
| 20260502204505 | 69 | 287 | 10.4 | 14.8 | 0.00 | 0.00 | 0.00 | 19 | 1010.9 |
| 20260502204005 | 69 | 290 | 9.6 | 13.0 | 0.00 | 0.00 | 0.00 | 20 | 1010.9 |
| 20260502203505 | 69 | 305 | 8.7 | 14.8 | 0.00 | 0.00 | 0.00 | 20 | 1010.9 |
| 20260502203005 | 69 | 285 | 9.6 | 14.8 | 0.00 | 0.00 | 0.00 | 20 | 1011.0 |
| 20260502202005 | 69 | 284 | 7.8 | 17.4 | 0.00 | 0.00 | 0.00 | 21 | 1011.1 |
| 20260502201505 | 69 | 271 | 8.7 | 17.4 | 0.00 | 0.00 | 0.00 | 20 | 1011.1 |
| 20260502201005 | 69 | 280 | 10.4 | 14.8 | 0.00 | 0.00 | 0.00 | 19 | 1011.3 |
| 20260502195505 | 69 | 285 | 8.7 | 14.8 | 0.00 | 0.00 | 0.00 | 21 | 1011.4 |
| 20260502195005 | 69 | 273 | 8.7 | 15.6 | 0.00 | 0.00 | 0.00 | 20 | 1011.5 |
| 20260502194505 | 69 | 242 | 10.4 | 15.6 | 0.00 | 0.00 | 0.00 | 19 | 1011.5 |
| 20260502194005 | 69 | 244 | 8.7 | 13.9 | 0.00 | 0.00 | 0.00 | 20 | 1011.6 |
| 20260502193504 | 69 | 247 | 7.8 | 11.3 | 0.00 | 0.00 | 0.00 | 21 | 1011.6 |
| 20260502193005 | 70 | 277 | 5.2 | 17.4 | 0.00 | 0.00 | 0.00 | 19 | 1011.8 |
| 20260502192005 | 69 | 252 | 7.0 | 13.0 | 0.00 | 0.00 | 0.00 | 19 | 1012.0 |
| 20260502191505 | 69 | 292 | 7.0 | 13.0 | 0.00 | 0.00 | 0.00 | 20 | 1012.0 |
| 20260502190005 | 69 | 329 | 6.1 | 13.9 | 0.00 | 0.00 | 0.00 | 22 | 1012.2 |
| 20260502185505 | 69 | 330 | 7.8 | 13.9 | 0.00 | 0.00 | 0.00 | 20 | 1012.2 |
| 20260502185005 | 68 | 309 | 5.2 | 13.9 | 0.00 | 0.00 | 0.00 | 23 | 1012.4 |
| 20260502184505 | 68 | 332 | 6.1 | 13.9 | 0.00 | 0.00 | 0.00 | 22 | 1012.5 |
| 20260502184006 | 68 | 338 | 4.3 | 12.2 | 0.00 | 0.00 | 0.00 | 22 | 1012.5 |
| 20260502182505 | 67 | 0 | 2.6 | 8.7 | 0.00 | 0.00 | 0.00 | 24 | 1012.6 |
| 20260502182005 | 66 | 36 | 1.7 | 11.3 | 0.00 | 0.00 | 0.00 | 26 | 1012.7 |
| 20260502181005 | 66 | 6 | 4.3 | 11.3 | 0.00 | 0.00 | 0.00 | 26 | 1012.8 |
| 20260502164005 | 63 | 285 | 2.6 | 7.0 | 0.00 | 0.00 | 0.00 | 28 | 1013.5 |
| 20260502163505 | 62 | 328 | 3.5 | 8.7 | 0.00 | 0.00 | 0.00 | 29 | 1013.6 |
| 20260502163005 | 61 | 1 | 3.5 | 8.7 | 0.00 | 0.00 | 0.00 | 30 | 1013.7 |
| 20260502162505 | 61 | 1 | 5.2 | 7.8 | 0.00 | 0.00 | 0.00 | 31 | 1013.7 |
| 20260502162005 | 61 | 5 | 4.3 | 7.8 | 0.00 | 0.00 | 0.00 | 31 | 1013.8 |
| 20260502161504 | 60 | 358 | 2.6 | 10.4 | 0.00 | 0.00 | 0.00 | 30 | 1013.8 |
| 20260502161005 | 60 | 16 | 4.3 | 10.4 | 0.00 | 0.00 | 0.00 | 29 | 1013.7 |
| 20260502152005 | 58 | 324 | 7.8 | 11.3 | 0.00 | 0.00 | 0.00 | 32 | 1014.1 |
| 20260502151505 | 57 | 331 | 7.8 | 11.3 | 0.00 | 0.00 | 0.00 | 33 | 1014.1 |
| 20260502151005 | 57 | 325 | 8.7 | 10.4 | 0.00 | 0.00 | 0.00 | 34 | 1014.1 |
| 20260502123505 | 46 | 231 | 5.2 | 13.9 | 0.00 | 0.00 | 0.00 | 41 | 1013.6 |
| 20260502123004 | 44 | 222 | 3.5 | 7.8 | 0.00 | 0.00 | 0.00 | 44 | 1013.6 |
| 20260502122505 | 43 | 231 | 5.2 | 7.8 | 0.00 | 0.00 | 0.00 | 44 | 1013.6 |
| 20260502122005 | 44 | 230 | 4.3 | 5.2 | 0.00 | 0.00 | 0.00 | 43 | 1013.6 |
| 20260502121005 | 46 | 208 | 2.6 | 10.4 | 0.00 | 0.00 | 0.00 | 39 | 1013.6 |
| 20260502115505 | 47 | 256 | 7.0 | 10.4 | 0.00 | 0.00 | 0.00 | 38 | 1013.5 |
| 20260502114504 | 46 | 247 | 7.8 | 10.4 | 0.00 | 0.00 | 0.00 | 40 | 1013.5 |
| 20260502114005 | 45 | 239 | 6.1 | 8.7 | 0.00 | 0.00 | 0.00 | 40 | 1013.4 |
| 20260502113504 | 45 | 241 | 6.1 | 8.7 | 0.00 | 0.00 | 0.00 | 40 | 1013.4 |
| 20260502113005 | 46 | 230 | 6.1 | 8.7 | 0.00 | 0.00 | 0.00 | 40 | 1013.5 |
| 20260502112505 | 46 | 242 | 6.1 | 10.4 | 0.00 | 0.00 | 0.00 | 39 | 1013.4 |
| 20260502112004 | 46 | 239 | 7.0 | 10.4 | 0.00 | 0.00 | 0.00 | 39 | 1013.4 |
| 20260502111505 | 47 | 236 | 6.1 | 10.4 | 0.00 | 0.00 | 0.00 | 38 | 1013.5 |
| 20260502110005 | 47 | 248 | 7.0 | 10.4 | 0.00 | 0.00 | 0.00 | 37 | 1013.5 |
| 20260502105505 | 47 | 235 | 6.1 | 10.4 | 0.00 | 0.00 | 0.00 | 37 | 1013.5 |
| 20260502105005 | 47 | 237 | 7.0 | 10.4 | 0.00 | 0.00 | 0.00 | 38 | 1013.5 |
| 20260502104504 | 46 | 232 | 6.1 | 8.7 | 0.00 | 0.00 | 0.00 | 38 | 1013.4 |
| 20260502104004 | 45 | 233 | 5.2 | 8.7 | 0.00 | 0.00 | 0.00 | 39 | 1013.4 |
| 20260502103505 | 45 | 228 | 5.2 | 7.8 | 0.00 | 0.00 | 0.00 | 40 | 1013.4 |
| 20260502103005 | 45 | 238 | 6.1 | 7.8 | 0.00 | 0.00 | 0.00 | 40 | 1013.4 |
| 20260502102004 | 45 | 236 | 5.2 | 7.0 | 0.00 | 0.00 | 0.00 | 39 | 1013.3 |
| 20260502101504 | 46 | 241 | 5.2 | 7.8 | 0.00 | 0.00 | 0.00 | 38 | 1013.3 |
| 20260502101005 | 46 | 237 | 5.2 | 7.8 | 0.00 | 0.00 | 0.00 | 38 | 1013.4 |
| 20260502091505 | 48 | 232 | 7.8 | 10.4 | 0.00 | 0.00 | 0.00 | 35 | 1013.3 |
| 20260502091005 | 48 | 234 | 6.1 | 10.4 | 0.00 | 0.00 | 0.00 | 35 | 1013.3 |
| 20260502071504 | 49 | 231 | 6.1 | 10.4 | 0.00 | 0.00 | 0.00 | 32 | 1014.0 |
| 20260502071004 | 50 | 233 | 7.8 | 10.4 | 0.00 | 0.00 | 0.00 | 31 | 1013.9 |
| 20260502070004 | 50 | 229 | 7.8 | 12.2 | 0.00 | 0.00 | 0.00 | 31 | 1014.0 |
| 20260502065504 | 50 | 229 | 7.8 | 12.2 | 0.00 | 0.00 | 0.00 | 32 | 1014.0 |
| 20260502065004 | 49 | 232 | 7.8 | 10.4 | 0.00 | 0.00 | 0.00 | 32 | 1014.0 |
| 20260502064504 | 49 | 225 | 6.1 | 10.4 | 0.00 | 0.00 | 0.00 | 32 | 1014.0 |
| 20260502064004 | 49 | 229 | 6.1 | 10.4 | 0.00 | 0.00 | 0.00 | 32 | 1014.0 |
| 20260502063505 | 49 | 223 | 7.0 | 10.4 | 0.00 | 0.00 | 0.00 | 32 | 1013.9 |
| 20260502063004 | 49 | 207 | 6.1 | 11.3 | 0.00 | 0.00 | 0.00 | 32 | 1013.9 |
| 20260502062505 | 49 | 220 | 7.0 | 11.3 | 0.00 | 0.00 | 0.00 | 32 | 1013.9 |
| 20260502062004 | 49 | 217 | 7.8 | 12.2 | 0.00 | 0.00 | 0.00 | 32 | 1013.9 |
| 20260502061504 | 50 | 214 | 7.8 | 12.2 | 0.00 | 0.00 | 0.00 | 32 | 1014.0 |
| 20260502061005 | 50 | 225 | 7.0 | 10.4 | 0.00 | 0.00 | 0.00 | 31 | 1014.0 |
| 20260502060005 | 50 | 214 | 6.1 | 10.4 | 0.00 | 0.00 | 0.00 | 31 | 1014.0 |
| 20260502055005 | 51 | 218 | 6.1 | 10.4 | 0.00 | 0.00 | 0.00 | 30 | 1014.1 |
| 20260502054504 | 51 | 217 | 6.1 | 10.4 | 0.00 | 0.00 | 0.00 | 31 | 1014.1 |
| 20260502054005 | 51 | 209 | 6.1 | 13.0 | 0.00 | 0.00 | 0.00 | 31 | 1014.1 |
| 20260502053505 | 51 | 208 | 6.1 | 13.0 | 0.00 | 0.00 | 0.00 | 30 | 1014.1 |
| 20260502053004 | 51 | 205 | 7.8 | 12.2 | 0.00 | 0.00 | 0.00 | 30 | 1014.0 |
| 20260502052504 | 51 | 211 | 6.1 | 10.4 | 0.00 | 0.00 | 0.00 | 30 | 1014.1 |
| 20260502052005 | 51 | 209 | 6.1 | 10.4 | 0.00 | 0.00 | 0.00 | 30 | 1014.0 |
| 20260502050004 | 51 | 208 | 7.8 | 12.2 | 0.00 | 0.00 | 0.00 | 31 | 1014.1 |
| 20260502045504 | 51 | 206 | 7.8 | 11.3 | 0.00 | 0.00 | 0.00 | 31 | 1014.1 |
| 20260502045004 | 51 | 203 | 8.7 | 12.2 | 0.00 | 0.00 | 0.00 | 31 | 1014.2 |
| 20260502044504 | 51 | 203 | 8.7 | 12.2 | 0.00 | 0.00 | 0.00 | 31 | 1014.2 |
| 20260502044004 | 51 | 202 | 7.8 | 13.0 | 0.00 | 0.00 | 0.00 | 30 | 1014.3 |
| 20260502043504 | 52 | 203 | 8.7 | 13.0 | 0.00 | 0.00 | 0.00 | 30 | 1014.3 |
| 20260502043005 | 52 | 202 | 7.8 | 12.2 | 0.00 | 0.00 | 0.00 | 30 | 1014.4 |
| 20260502041504 | 52 | 206 | 7.8 | 11.3 | 0.00 | 0.00 | 0.00 | 29 | 1014.4 |
| 20260502041005 | 53 | 201 | 7.8 | 13.9 | 0.00 | 0.00 | 0.00 | 29 | 1014.4 |
| 20260502040004 | 53 | 202 | 7.8 | 11.3 | 0.00 | 0.00 | 0.00 | 29 | 1014.3 |
| 20260502035504 | 53 | 198 | 8.7 | 11.3 | 0.00 | 0.00 | 0.00 | 28 | 1014.2 |
| 20260502034504 | 54 | 200 | 7.8 | 10.4 | 0.00 | 0.00 | 0.00 | 29 | 1014.2 |
| 20260502034004 | 54 | 204 | 7.0 | 10.4 | 0.00 | 0.00 | 0.00 | 28 | 1014.2 |
| 20260502033504 | 55 | 198 | 7.0 | 10.4 | 0.00 | 0.00 | 0.00 | 27 | 1014.2 |
| 20260502032504 | 55 | 195 | 8.7 | 10.4 | 0.00 | 0.00 | 0.00 | 26 | 1014.1 |
| 20260502032004 | 55 | 201 | 7.0 | 7.8 | 0.00 | 0.00 | 0.00 | 26 | 1014.1 |
| 20260502031504 | 56 | 200 | 6.1 | 7.8 | 0.00 | 0.00 | 0.00 | 25 | 1014.1 |
| 20260502031004 | 57 | 200 | 3.5 | 7.8 | 0.00 | 0.00 | 0.00 | 25 | 1014.1 |
| 20260502030004 | 58 | 233 | 3.5 | 7.8 | 0.00 | 0.00 | 0.00 | 23 | 1013.9 |
| 20260502025504 | 59 | 244 | 5.2 | 7.8 | 0.00 | 0.00 | 0.00 | 22 | 1013.9 |
| 20260502025005 | 60 | 262 | 5.2 | 7.8 | 0.00 | 0.00 | 0.00 | 21 | 1013.8 |
| 20260502024504 | 60 | 246 | 6.1 | 7.8 | 0.00 | 0.00 | 0.00 | 21 | 1013.8 |
| 20260502024004 | 60 | 249 | 5.2 | 7.8 | 0.00 | 0.00 | 0.00 | 21 | 1013.7 |
| 20260502023504 | 61 | 282 | 5.2 | 8.7 | 0.00 | 0.00 | 0.00 | 21 | 1013.7 |
| 20260502023005 | 61 | 279 | 6.1 | 8.7 | 0.00 | 0.00 | 0.00 | 20 | 1013.7 |
| 20260502022504 | 61 | 282 | 6.1 | 8.7 | 0.00 | 0.00 | 0.00 | 20 | 1013.7 |
| 20260502022004 | 62 | 278 | 6.1 | 8.7 | 0.00 | 0.00 | 0.00 | 20 | 1013.8 |
| 20260502021004 | 62 | 262 | 6.1 | 8.7 | 0.00 | 0.00 | 0.00 | 19 | 1013.7 |
| 20260502020004 | 63 | 254 | 6.1 | 10.4 | 0.00 | 0.00 | 0.00 | 19 | 1013.7 |
| 20260502015504 | 64 | 262 | 6.1 | 10.4 | 0.00 | 0.00 | 0.00 | 18 | 1013.7 |
| 20260502015004 | 64 | 260 | 7.8 | 10.4 | 0.00 | 0.00 | 0.00 | 19 | 1013.7 |
| 20260502014504 | 64 | 261 | 7.8 | 10.4 | 0.00 | 0.00 | 0.00 | 18 | 1013.7 |
| 20260502013504 | 65 | 254 | 8.7 | 12.2 | 0.00 | 0.00 | 0.00 | 18 | 1013.7 |
| 20260502013005 | 65 | 245 | 5.2 | 12.2 | 0.00 | 0.00 | 0.00 | 19 | 1013.7 |
| 20260502012004 | 66 | 261 | 8.7 | 11.3 | 0.00 | 0.00 | 0.00 | 17 | 1013.7 |
| 20260502011505 | 66 | 261 | 5.2 | 10.4 | 0.00 | 0.00 | 0.00 | 18 | 1013.7 |
| 20260502011004 | 66 | 265 | 6.1 | 10.4 | 0.00 | 0.00 | 0.00 | 17 | 1013.6 |
| 20260502005504 | 67 | 268 | 7.8 | 12.2 | 0.00 | 0.00 | 0.00 | 18 | 1013.7 |
| 20260502004503 | 67 | 247 | 7.8 | 10.4 | 0.00 | 0.00 | 0.00 | 16 | 1013.7 |
| 20260502004004 | 67 | 263 | 7.8 | 10.4 | 0.00 | 0.00 | 0.00 | 17 | 1013.7 |
| 20260502003504 | 67 | 256 | 7.0 | 13.0 | 0.00 | 0.00 | 0.00 | 18 | 1013.7 |
| 20260502003004 | 67 | 256 | 7.8 | 13.0 | 0.00 | 0.00 | 0.00 | 17 | 1013.7 |
| 20260502002504 | 68 | 252 | 7.8 | 13.0 | 0.00 | 0.00 | 0.00 | 18 | 1013.7 |
| 20260502002004 | 68 | 233 | 4.3 | 7.8 | 0.00 | 0.00 | 0.00 | 17 | 1013.8 |
| 20260502001504 | 67 | 237 | 4.3 | 10.4 | 0.00 | 0.00 | 0.00 | 18 | 1013.8 |
| 20260502001004 | 68 | 247 | 7.8 | 11.3 | 0.00 | 0.00 | 0.00 | 17 | 1013.9 |
| 20260502000004 | 68 | 281 | 8.7 | 10.4 | 0.00 | 0.00 | 0.00 | 18 | 1013.9 |
| 20260501235504 | 69 | 277 | 5.2 | 7.8 | 0.00 | 0.00 | 0.00 | 18 | 1014.0 |
| 20260501235004 | 69 | 292 | 4.3 | 8.7 | 0.00 | 0.00 | 0.00 | 18 | 1014.1 |
| 20260501234504 | 68 | 260 | 5.2 | 11.3 | 0.00 | 0.00 | 0.00 | 17 | 1014.2 |
| 20260501234004 | 68 | 286 | 7.0 | 11.3 | 0.00 | 0.00 | 0.00 | 18 | 1014.2 |
| 20260501233506 | 68 | 281 | 5.2 | 10.4 | 0.00 | 0.00 | 0.00 | 19 | 1014.3 |
| 20260501233006 | 67 | 272 | 4.3 | 12.2 | 0.00 | 0.00 | 0.00 | 19 | 1014.3 |
| 20260501232506 | 67 | 253 | 6.1 | 12.2 | 0.00 | 0.00 | 0.00 | 18 | 1014.3 |
| 20260501232006 | 68 | 266 | 7.8 | 11.3 | 0.00 | 0.00 | 0.00 | 17 | 1014.3 |
| 20260501231506 | 68 | 264 | 6.1 | 10.4 | 0.00 | 0.00 | 0.00 | 17 | 1014.4 |
| 20260501231006 | 68 | 280 | 7.8 | 10.4 | 0.00 | 0.00 | 0.00 | 18 | 1014.4 |
| 20260501230006 | 67 | 273 | 6.1 | 13.9 | 0.00 | 0.00 | 0.00 | 19 | 1014.4 |
| 20260501225506 | 67 | 239 | 6.1 | 13.9 | 0.00 | 0.00 | 0.00 | 19 | 1014.4 |
| 20260501225006 | 68 | 257 | 8.7 | 12.2 | 0.00 | 0.00 | 0.00 | 19 | 1014.5 |
| 20260501224506 | 67 | 272 | 2.6 | 13.0 | 0.00 | 0.00 | 0.00 | 17 | 1014.5 |
| 20260501224006 | 67 | 276 | 8.7 | 13.0 | 0.00 | 0.00 | 0.00 | 18 | 1014.6 |
| 20260501223506 | 67 | 253 | 10.4 | 13.0 | 0.00 | 0.00 | 0.00 | 19 | 1014.6 |
| 20260501223006 | 67 | 233 | 5.2 | 12.2 | 0.00 | 0.00 | 0.00 | 19 | 1014.6 |
| 20260501222505 | 67 | 288 | 6.1 | 13.9 | 0.00 | 0.00 | 0.00 | 17 | 1014.7 |
| 20260501222006 | 67 | 268 | 8.7 | 13.9 | 0.00 | 0.00 | 0.00 | 19 | 1014.8 |
| 20260501221506 | 67 | 301 | 8.7 | 13.9 | 0.00 | 0.00 | 0.00 | 20 | 1014.9 |
| 20260501221007 | 66 | 270 | 10.4 | 13.9 | 0.00 | 0.00 | 0.00 | 22 | 1014.9 |